Orbital Elements at Epoch 2459200.5 (2020-Dec-17.0) TDB
Reference: JPL 27 (heliocentric ecliptic J2000)
Element | Value | Uncertainty (1-sigma) | Units |
e | .01832017448798252 | 5.1887e-08 | |
a | 5.140855528897684 | 9.9448e-08 | au |
q | 5.046674158590769 | 3.3781e-07 | au |
i | 9.204763764080203 | 6.4535e-06 | deg |
node | 27.88040727328726 | 3.0483e-05 | deg |
peri | 46.81724294291345 | 0.00019048 | deg |
M | 299.0617244827064 | 0.00018931 | deg |
tp | 2459921.174549048490 (2022-Dec-07.67454905) | 0.0022439 | TDB |
period | 4257.469307345749 11.66 | 0.00012354 3.382e-07 | d yr |
n | .08455727428941495 | 2.4536e-09 | deg/d |
Q | 5.2350368992046 | 1.0127e-07 | au |
|
| | Orbit Determination Parameters
Additional Information
|